Weather History for Jacksonville, NC

Change the Weather History Date:

Monday, April 22, 2013

  Actual Average Record
Temperature  
Mean Temperature 50 °F -  
Max Temperature 60 °F 72 °F 89 °F (1999)
Min Temperature 41 °F 48 °F 39 °F (2007)
Degree Days  
Heating Degree Days 14    
Moisture  
Dew Point 43 °F    
Average Humidity 76    
Maximum Humidity 94    
Minimum Humidity 59    
Precipitation  
Precipitation 0.00 in - - ()
Sea Level Pressure  
Sea Level Pressure 30.30 in    
Wind  
Wind Speed 12 mph (NNE)    
Max Wind Speed 18 mph    
Max Gust Speed 26 mph    
Visibility 10 miles    
Events      
Averages and records for this station are not official NWS values.
T = Trace of Precipitation, MM = Missing Value Source: NWS Daily Summary

Daily Weather History Graph

Daily Weather History Graph

Search for Another Location

Airport:

Trip Planner

Search our weather history database for the weather conditions in past years. The results will help you decide how hot, cold, wet, or windy it might be!

Date:

Astronomy

Apr. 22, 2013 Rise Set
Actual Time 6:29 AM EDT 7:48 PM EDT
Civil Twilight 6:03 AM EDT 8:15 PM EDT
Nautical Twilight 5:31 AM EDT 8:46 PM EDT
Astronomical Twilight 4:59 AM EDT 9:19 PM EDT
Moon 4:42 PM EDT (4/22) 4:15 AM EDT (4/22)
Length of Visible Light 14h 11m
Length of Day
13h 18m
Waxing Gibbous, 87% of the Moon is Illuminated
Apr 22
Waxing Gibbous
Apr 25
Full
May 2
Last Quarter
May 9
New
May 18
First Quarter

Hourly Weather History & Observations

Time (EDT) Temp. Windchill Dew Point Humidity Pressure Visibility Wind Dir Wind Speed Gust Speed Precip Events Conditions
12:15 AM 44.6 °F 39.2 °F 35.6 °F 71% 30.45 in 10.0 mi NNE 10.4 mph - N/A   Clear
12:35 AM 44.6 °F 39.2 °F 35.6 °F 71% 30.44 in 10.0 mi NNE 10.4 mph - N/A   Clear
12:55 AM 44.6 °F 39.2 °F 35.6 °F 71% 30.43 in 10.0 mi NNE 10.4 mph - N/A   Clear
1:15 AM 44.6 °F 40.2 °F 35.6 °F 71% 30.43 in 10.0 mi North 8.1 mph - N/A   Clear
1:35 AM 42.8 °F 37.0 °F 35.6 °F 76% 30.42 in 10.0 mi North 10.4 mph 16.1 mph N/A   Clear
1:55 AM 42.8 °F 36.6 °F 35.6 °F 76% 30.41 in 10.0 mi NNE 11.5 mph - N/A   Clear
2:15 AM 42.8 °F 36.2 °F 35.6 °F 76% 30.40 in 10.0 mi NNE 12.7 mph 18.4 mph N/A   Clear
2:35 AM 42.8 °F 36.2 °F 35.6 °F 76% 30.38 in 10.0 mi NNE 12.7 mph 18.4 mph N/A   Clear
2:55 AM 42.8 °F 36.2 °F 37.4 °F 81% 30.38 in 10.0 mi NNE 12.7 mph 20.7 mph N/A   Clear
3:15 AM 42.8 °F 36.2 °F 37.4 °F 81% 30.36 in 10.0 mi NNE 12.7 mph - N/A   Clear
3:35 AM 42.8 °F 35.8 °F 37.4 °F 81% 30.37 in 10.0 mi NNE 13.8 mph - N/A   Clear
3:55 AM 42.8 °F 37.5 °F 37.4 °F 81% 30.37 in 10.0 mi NNE 9.2 mph - N/A   Clear
4:15 AM 42.8 °F 38.0 °F 37.4 °F 81% 30.37 in 10.0 mi North 8.1 mph - N/A   Clear
4:35 AM 41.0 °F 35.8 °F 37.4 °F 87% 30.37 in 10.0 mi North 8.1 mph - N/A   Clear
4:55 AM 41.0 °F 35.8 °F 37.4 °F 87% 30.37 in 10.0 mi North 8.1 mph - N/A   Clear
5:15 AM 41.0 °F 35.8 °F 37.4 °F 87% 30.36 in 10.0 mi North 8.1 mph - N/A   Clear
5:35 AM 41.0 °F 34.3 °F 37.4 °F 87% 30.35 in 10.0 mi NNE 11.5 mph 17.3 mph N/A   Clear
5:55 AM 41.0 °F 34.3 °F 35.6 °F 81% 30.34 in 10.0 mi NNE 11.5 mph - N/A   Clear
6:15 AM 41.0 °F 35.8 °F 35.6 °F 81% 30.35 in 10.0 mi North 8.1 mph - N/A   Clear
6:35 AM 41.0 °F 35.2 °F 37.4 °F 87% 30.35 in 10.0 mi NNE 9.2 mph - N/A   Mostly Cloudy
6:55 AM 42.8 °F 36.2 °F 37.4 °F 81% 30.35 in 10.0 mi NNE 12.7 mph 19.6 mph N/A   Overcast
7:15 AM 42.8 °F 35.8 °F 37.4 °F 81% 30.35 in 10.0 mi NNE 13.8 mph 18.4 mph N/A   Overcast
7:35 AM 44.6 °F 38.1 °F 37.4 °F 76% 30.35 in 10.0 mi North 13.8 mph 18.4 mph N/A   Overcast
7:55 AM 44.6 °F 39.2 °F 39.2 °F 81% 30.36 in 10.0 mi North 10.4 mph - N/A   Overcast
8:15 AM 44.6 °F 38.1 °F 39.2 °F 81% 30.34 in 10.0 mi NNE 13.8 mph 19.6 mph N/A   Mostly Cloudy
8:35 AM 46.4 °F 41.5 °F 39.2 °F 76% 30.35 in 10.0 mi NNE 10.4 mph 18.4 mph N/A   Overcast
8:55 AM 46.4 °F 41.1 °F 39.2 °F 76% 30.34 in 10.0 mi NNE 11.5 mph 20.7 mph N/A   Overcast
9:15 AM 48.2 °F - 41.0 °F 76% 30.33 in 10.0 mi NNE 16.1 mph 21.9 mph N/A   Overcast
9:35 AM 48.2 °F - 42.8 °F 82% 30.33 in 10.0 mi NNE 12.7 mph - N/A   Overcast
9:55 AM 50.0 °F - 42.8 °F 76% 30.32 in 10.0 mi NNE 15.0 mph - N/A   Overcast
10:15 AM 51.8 °F - 42.8 °F 71% 30.34 in 10.0 mi NNE 13.8 mph 18.4 mph N/A   Overcast
10:35 AM 51.8 °F - 44.6 °F 76% 30.33 in 10.0 mi NNE 13.8 mph 18.4 mph N/A   Mostly Cloudy
10:55 AM 53.6 °F - 44.6 °F 72% 30.33 in 10.0 mi North 15.0 mph 20.7 mph N/A   Mostly Cloudy
11:15 AM 53.6 °F - 44.6 °F 72% 30.33 in 10.0 mi North 11.5 mph 16.1 mph N/A   Overcast
11:35 AM 55.4 °F - 44.6 °F 67% 30.33 in 10.0 mi North 12.7 mph 18.4 mph N/A   Overcast
11:55 AM 55.4 °F - 44.6 °F 67% 30.32 in 10.0 mi North 11.5 mph - N/A   Overcast
12:15 PM 57.2 °F - 46.4 °F 67% 30.31 in 10.0 mi NNE 13.8 mph 20.7 mph N/A   Overcast
12:35 PM 59.0 °F - 46.4 °F 63% 30.30 in 10.0 mi North 15.0 mph 19.6 mph N/A   Overcast
12:55 PM 59.0 °F - 46.4 °F 63% 30.29 in 10.0 mi NNE 17.3 mph 20.7 mph N/A   Overcast
1:15 PM 60.8 °F - 46.4 °F 59% 30.28 in 10.0 mi NNE 18.4 mph 23.0 mph N/A   Overcast
1:35 PM 60.8 °F - 46.4 °F 59% 30.28 in 10.0 mi NNE 13.8 mph 21.9 mph N/A   Overcast
1:55 PM 60.8 °F - 46.4 °F 59% 30.26 in 10.0 mi NNE 15.0 mph 23.0 mph N/A   Overcast
2:15 PM 60.8 °F - 46.4 °F 59% 30.25 in 10.0 mi North 15.0 mph 20.7 mph N/A   Overcast
2:35 PM 60.8 °F - 46.4 °F 59% 30.25 in 10.0 mi NNE 13.8 mph 19.6 mph N/A   Overcast
2:55 PM 59.0 °F - 46.4 °F 63% 30.24 in 10.0 mi NNE 13.8 mph 26.5 mph N/A   Overcast
3:15 PM 59.0 °F - 46.4 °F 63% 30.23 in 10.0 mi North 18.4 mph 26.5 mph N/A   Overcast
3:35 PM 59.0 °F - 46.4 °F 63% 30.23 in 10.0 mi North 15.0 mph 24.2 mph N/A   Overcast
3:55 PM 59.0 °F - 46.4 °F 63% 30.22 in 10.0 mi North 12.7 mph 19.6 mph N/A   Overcast
4:15 PM 59.0 °F - 46.4 °F 63% 30.22 in 10.0 mi NNE 17.3 mph 21.9 mph N/A   Overcast
4:35 PM 59.0 °F - 46.4 °F 63% 30.21 in 10.0 mi North 10.4 mph 23.0 mph N/A   Overcast
4:55 PM 57.2 °F - 46.4 °F 67% 30.21 in 10.0 mi NNE 15.0 mph 24.2 mph N/A   Overcast
5:15 PM 57.2 °F - 46.4 °F 67% 30.21 in 10.0 mi NNE 16.1 mph 25.3 mph N/A   Overcast
5:35 PM 55.4 °F - 48.2 °F 77% 30.21 in 10.0 mi North 10.4 mph 18.4 mph N/A   Overcast
5:55 PM 55.4 °F - 46.4 °F 72% 30.21 in 10.0 mi North 15.0 mph 23.0 mph N/A   Overcast
6:15 PM 55.4 °F - 48.2 °F 77% 30.21 in 10.0 mi North 11.5 mph 23.0 mph N/A   Overcast
6:35 PM 53.6 °F - 48.2 °F 82% 30.22 in 10.0 mi North 8.1 mph 23.0 mph N/A   Overcast
6:55 PM 53.6 °F - 48.2 °F 82% 30.21 in 10.0 mi North 15.0 mph 21.9 mph N/A   Overcast
7:15 PM 53.6 °F - 46.4 °F 77% 30.21 in 10.0 mi North 11.5 mph 21.9 mph N/A   Overcast
7:35 PM 53.6 °F - 46.4 °F 77% 30.22 in 10.0 mi North 11.5 mph 24.2 mph N/A   Overcast
7:55 PM 51.8 °F - 46.4 °F 82% 30.22 in 10.0 mi North 13.8 mph 20.7 mph N/A   Overcast
8:15 PM 51.8 °F - 46.4 °F 82% 30.22 in 10.0 mi North 11.5 mph 17.3 mph N/A   Overcast
8:35 PM 51.8 °F - 46.4 °F 82% 30.22 in 10.0 mi North 12.7 mph - N/A   Overcast
8:55 PM 51.8 °F - 46.4 °F 82% 30.22 in 10.0 mi North 13.8 mph 23.0 mph N/A   Overcast
9:15 PM 51.8 °F - 46.4 °F 82% 30.22 in 10.0 mi North 15.0 mph 20.7 mph N/A   Overcast
9:35 PM 51.8 °F - 46.4 °F 82% 30.22 in 10.0 mi North 10.4 mph 21.9 mph N/A   Overcast
9:55 PM 51.8 °F - 48.2 °F 88% 30.22 in 7.0 mi North 10.4 mph 17.3 mph N/A   Overcast
10:15 PM 51.8 °F - 46.4 °F 82% 30.22 in 8.0 mi North 11.5 mph 17.3 mph N/A   Overcast
10:35 PM 50.0 °F - 46.4 °F 87% 30.22 in 9.0 mi North 9.2 mph 16.1 mph N/A   Overcast
10:55 PM 50.0 °F - 46.4 °F 87% 30.22 in 8.0 mi North 8.1 mph 19.6 mph N/A   Overcast
11:15 PM 50.0 °F - 46.4 °F 87% 30.22 in 7.0 mi NNE 10.4 mph 18.4 mph N/A   Overcast
11:35 PM 50.0 °F - 48.2 °F 94% 30.21 in 8.0 mi North 9.2 mph - N/A   Overcast
11:55 PM 50.0 °F - 46.4 °F 87% 30.21 in 9.0 mi North 12.7 mph - N/A   Overcast